• In Czech Republic
  • List of Countries
  • For 7 days
  • Water Temperature
  • Satellite Maps
  • Weather Map
  • Weather Widgets
  • user-avatar
    Login

    Hourly Weather Trydent i Bolzano

    Today, 17 January, Wednesday

    Time Temperature Precipitation Wind Pressure Humidity
    00:00 +5°C° 0.4 mm 2 mps 724 mmHg 92%
    01:00 +5°C° 0.4 mm 2 mps 723 mmHg 92%
    02:00 +5°C° 0.5 mm 2 mps 723 mmHg 92%
    03:00 +5°C° 0.5 mm 2 mps 722 mmHg 92%
    04:00 +5°C° 0.5 mm 2 mps 722 mmHg 93%
    05:00 +4°C° 0.4 mm 2 mps 722 mmHg 92%
    06:00 +4°C° 0.4 mm 2 mps 722 mmHg 92%
    07:00 +5°C° 0.4 mm 1 mps 722 mmHg 92%
    08:00 +4°C° 0.5 mm 2 mps 722 mmHg 88%
    09:00 +4°C° 0.5 mm 2 mps 723 mmHg 85%
    10:00 +3°C° 0.5 mm 3 mps 723 mmHg 81%
    11:00 +3°C° 0.4 mm 3 mps 724 mmHg 80%
    12:00 +3°C° 0.4 mm 3 mps 724 mmHg 79%
    13:00 +3°C° 0.4 mm 4 mps 725 mmHg 78%
    14:00 +1°C° 0.4 mm 4 mps 726 mmHg 79%
    15:00 0°C° 0.4 mm 4 mps 727 mmHg 80%
    16:00 0°C° 0.4 mm 3 mps 728 mmHg 81%
    17:00 0°C° 0.3 mm 3 mps 729 mmHg 83%
    18:00 -1°C° 0.3 mm 3 mps 730 mmHg 84%
    19:00 -2°C° 0.3 mm 3 mps 730 mmHg 86%
    20:00 -2°C° 0.3 mm 3 mps 731 mmHg 86%
    21:00 -2°C° 0.3 mm 3 mps 732 mmHg 86%
    22:00 -2°C° 0.3 mm 3 mps 732 mmHg 87%
    23:00 -1°C° 0.3 mm 3 mps 733 mmHg 87%

    Tomorrow, 18 January, Thursday

    Time Temperature Precipitation Wind Pressure Humidity
    00:00 -1°C° 0.3 mm 3 mps 733 mmHg 87%
    01:00 -1°C° 0.3 mm 2 mps 734 mmHg 87%
    02:00 -1°C° 0.2 mm 2 mps 734 mmHg 86%
    03:00 -2°C° 0.2 mm 2 mps 734 mmHg 86%
    04:00 -2°C° 0.2 mm 2 mps 734 mmHg 86%
    05:00 -2°C° 0.1 mm 2 mps 734 mmHg 85%
    06:00 -2°C° 0.1 mm 2 mps 734 mmHg 85%
    07:00 -2°C° 0.1 mm 2 mps 734 mmHg 84%
    08:00 -1°C° 0.1 mm 2 mps 734 mmHg 83%
    09:00 +1°C° 0.1 mm 2 mps 734 mmHg 82%
    10:00 +3°C° 0.1 mm 2 mps 733 mmHg 81%
    11:00 +4°C° 0.2 mm 2 mps 733 mmHg 81%
    12:00 +6°C° 0.2 mm 2 mps 732 mmHg 81%
    13:00 +7°C° 0.2 mm 2 mps 732 mmHg 81%
    14:00 +7°C° 0.2 mm 2 mps 731 mmHg 83%
    15:00 +7°C° 0.2 mm 2 mps 731 mmHg 85%
    16:00 +8°C° 0.2 mm 1 mps 730 mmHg 87%
    17:00 +6°C° 0.1 mm 2 mps 730 mmHg 87%
    18:00 +5°C° 0.1 mm 2 mps 730 mmHg 86%
    19:00 +4°C° 0.1 mm 2 mps 730 mmHg 86%
    20:00 +4°C° 0.1 mm 2 mps 730 mmHg 85%
    21:00 +4°C° 0.1 mm 2 mps 729 mmHg 84%
    22:00 +4°C° 0.1 mm 2 mps 729 mmHg 83%
    23:00 +4°C° 0.3 mm 2 mps 729 mmHg 84%

    Day after tomorrow, 19 January, Friday

    Time Temperature Precipitation Wind Pressure Humidity
    00:00 +5°C° 0.3 mm 2 mps 728 mmHg 85%
    01:00 +5°C° 0.3 mm 2 mps 728 mmHg 86%
    02:00 +5°C° 0.1 mm 2 mps 728 mmHg 86%
    03:00 +5°C° 0.1 mm 2 mps 728 mmHg 86%
    04:00 +4°C° 0.1 mm 2 mps 728 mmHg 85%
    05:00 +4°C° 0.1 mm 2 mps 728 mmHg 86%
    06:00 +5°C° 0.1 mm 2 mps 728 mmHg 87%
    07:00 +5°C° 0.1 mm 2 mps 728 mmHg 88%
    08:00 +5°C° 0.2 mm 2 mps 728 mmHg 89%
    09:00 +7°C° 0.2 mm 1 mps 729 mmHg 89%
    10:00 +8°C° 0.2 mm 1 mps 729 mmHg 89%
    11:00 +7°C° 0.3 mm 2 mps 729 mmHg 90%
    12:00 +7°C° 0.3 mm 2 mps 729 mmHg 90%
    13:00 +8°C° 0.3 mm 2 mps 728 mmHg 90%
    14:00 +7°C° 0.4 mm 2 mps 728 mmHg 91%
    15:00 +6°C° 0.4 mm 2 mps 729 mmHg 91%
    16:00 +5°C° 0.4 mm 2 mps 729 mmHg 91%
    17:00 +4°C° 0.3 mm 2 mps 729 mmHg 91%
    18:00 +3°C° 0.3 mm 2 mps 729 mmHg 90%
    19:00 +2°C° 0.3 mm 2 mps 730 mmHg 90%
    20:00 +1°C° 0 mm 2 mps 730 mmHg 89%
    21:00 -1°C° 0 mm 2 mps 730 mmHg 87%
    22:00 -2°C° 0 mm 2 mps 731 mmHg 86%
    23:00 -2°C° 0 mm 2 mps 731 mmHg 85%

    20 January, Saturday

    Time Temperature Precipitation Wind Pressure Humidity
    00:00 -2°C° 0 mm 2 mps 731 mmHg 84%
    01:00 -1°C° 0 mm 1 mps 731 mmHg 83%
    02:00 -1°C° 0 mm 1 mps 731 mmHg 83%
    03:00 -1°C° 0 mm 1 mps 731 mmHg 83%
    04:00 -1°C° 0 mm 1 mps 731 mmHg 84%
    05:00 -1°C° 0.1 mm 1 mps 731 mmHg 84%
    06:00 -1°C° 0.1 mm 1 mps 731 mmHg 85%
    07:00 -1°C° 0.1 mm 1 mps 731 mmHg 86%
    08:00 0°C° 0.1 mm 1 mps 731 mmHg 85%
    09:00 +1°C° 0.1 mm 1 mps 732 mmHg 84%
    10:00 +2°C° 0.1 mm 1 mps 732 mmHg 82%
    11:00 +3°C° 0.1 mm 1 mps 732 mmHg 79%
    12:00 +3°C° 0.1 mm 1 mps 731 mmHg 76%
    13:00 +4°C° 0.1 mm 1 mps 731 mmHg 72%
    14:00 +3°C° 0.1 mm 1 mps 731 mmHg 76%
    15:00 +3°C° 0.1 mm 1 mps 731 mmHg 79%
    16:00 +2°C° 0.1 mm 1 mps 730 mmHg 82%
    17:00 +1°C° 0 mm 1 mps 730 mmHg 82%
    18:00 0°C° 0 mm 1 mps 731 mmHg 82%
    19:00 -1°C° 0 mm 1 mps 731 mmHg 82%
    20:00 -1°C° 0 mm 1 mps 731 mmHg 82%
    21:00 -2°C° 0 mm 1 mps 731 mmHg 82%
    22:00 -2°C° 0 mm 1 mps 732 mmHg 83%
    23:00 -2°C° 0 mm 1 mps 732 mmHg 83%

    21 January, Sunday

    Time Temperature Precipitation Wind Pressure Humidity
    00:00 -4°C° 0 mm 2 mps 732 mmHg 82%
    01:00 -4°C° 0 mm 2 mps 732 mmHg 82%
    02:00 -4°C° 0 mm 2 mps 733 mmHg 82%
    03:00 -5°C° 0 mm 2 mps 733 mmHg 83%
    04:00 -5°C° 0 mm 2 mps 734 mmHg 83%
    05:00 -5°C° 0 mm 2 mps 734 mmHg 82%
    06:00 -6°C° 0 mm 2 mps 735 mmHg 82%
    07:00 -6°C° 0 mm 2 mps 736 mmHg 81%
    08:00 -5°C° 0 mm 2 mps 736 mmHg 80%
    09:00 -4°C° 0 mm 2 mps 737 mmHg 79%
    10:00 -2°C° 0 mm 2 mps 738 mmHg 78%
    11:00 -1°C° 0 mm 2 mps 738 mmHg 74%
    12:00 +1°C° 0 mm 2 mps 738 mmHg 70%
    13:00 +4°C° 0 mm 1 mps 737 mmHg 66%
    14:00 +3°C° 0 mm 1 mps 738 mmHg 70%
    15:00 +3°C° 0 mm 1 mps 738 mmHg 74%
    16:00 +2°C° 0 mm 1 mps 738 mmHg 78%
    17:00 +1°C° 0 mm 1 mps 738 mmHg 79%
    18:00 0°C° 0 mm 1 mps 738 mmHg 80%
    19:00 -1°C° 0 mm 1 mps 739 mmHg 82%
    20:00 -1°C° 0.2 mm 1 mps 739 mmHg 82%
    21:00 0°C° 0.2 mm 1 mps 739 mmHg 83%
    22:00 0°C° 0.2 mm 1 mps 739 mmHg 83%
    23:00 +1°C° 0.5 mm 1 mps 738 mmHg 85%

    22 January, Monday

    Time Temperature Precipitation Wind Pressure Humidity
    00:00 +1°C° 0.5 mm 1 mps 738 mmHg 86%
    01:00 -1°C° 0.5 mm 2 mps 737 mmHg 87%
    02:00 +1°C° 0.9 mm 2 mps 737 mmHg 88%
    03:00 +1°C° 0.9 mm 2 mps 736 mmHg 89%
    04:00 +1°C° 0.9 mm 2 mps 736 mmHg 89%
    05:00 +2°C° 1.2 mm 2 mps 735 mmHg 89%
    06:00 +3°C° 1.2 mm 1 mps 735 mmHg 90%
    07:00 +4°C° 1.2 mm 1 mps 735 mmHg 90%
    08:00 +5°C° 1 mm 1 mps 735 mmHg 89%
    09:00 +6°C° 1 mm 1 mps 735 mmHg 89%
    10:00 +6°C° 1 mm 2 mps 735 mmHg 88%
    11:00 +7°C° 0.2 mm 2 mps 735 mmHg 89%
    12:00 +9°C° 0.2 mm 2 mps 735 mmHg 90%
    13:00 +10°C° 0.2 mm 2 mps 735 mmHg 91%
    14:00 +10°C° 0 mm 2 mps 735 mmHg 91%
    15:00 +10°C° 0 mm 2 mps 735 mmHg 92%
    16:00 +9°C° 0 mm 2 mps 735 mmHg 92%
    17:00 +9°C° 0 mm 2 mps 735 mmHg 91%
    18:00 +8°C° 0 mm 2 mps 736 mmHg 90%
    19:00 +7°C° 0 mm 2 mps 736 mmHg 89%
    20:00 +8°C° 0.1 mm 2 mps 737 mmHg 88%
    21:00 +8°C° 0.1 mm 2 mps 737 mmHg 88%
    22:00 +8°C° 0.1 mm 2 mps 737 mmHg 88%
    23:00 +7°C° 0 mm 2 mps 738 mmHg 88%
    Show more